Preview of NWS' New Version of Forecast
This preview is not operational and should not be used for support decisions.

Regional Weather Roundup (RWR)

Issued by National Weather Service (NWS)

                            
000
ASPQ40 PGUM 230610
RWRPQ 
WEATHER ROUNDUP FOR THE MARIANAS AND MICRONESIA
NATIONAL WEATHER SERVICE TIYAN GU
400 PM CHST SUN JUN 23 2019

GUZ001>004-230700-
MARIANA ISLANDS-
  
CITY           SKY/WX    TMP DP  RH WIND       PRES   REMARKS
GUAM AIRPORT   PTSUNNY   88  75  66 E17G23    29.83F HX  97           
ANDERSEN AFB   MOSUNNY   86  77  74 E15       29.84S HX  97           
ROTA AIRPORT   PTSUNNY   86  73  66 E17       29.82F HX  93           
TINIAN AP      MOSUNNY   90  75  62 E16       29.82S HX 100           
SAIPAN AP      SUNNY     90  75  62 E18       29.84S HX 100           

$$

PMZ161-230700-
REPUBLIC OF PALAU-
  
CITY           SKY/WX    TMP DP  RH WIND       PRES   REMARKS
KOROR AP       NOT AVBL                                               
KOROR WSO      NOT AVBL                                               

$$

PMZ171>174-230700-
FEDERATED STATES OF MICRONESIA-
  
CITY           SKY/WX    TMP DP  RH WIND       PRES   REMARKS
YAP AIRPORT    MOSUNNY   88  79  74 VRB7      29.77F HX 102           
CHUUK AP       SHOWER    81  75  83 SE9       29.78R                  
POHNPEI AP     LGT RAIN  84  77  79 E12       29.76R HX  94           
POHNPEI WSO    LGT RAIN  82  77  83 E7        29.80R HX  91           
KOSRAE AP      NOT AVBL                                               

$$

PMZ181-230700-
REPUBLIC OF THE MARSHALL ISLANDS-
  
CITY           SKY/WX    TMP DP  RH WIND       PRES   REMARKS
KWAJALEIN AP   MOSUNNY   86  77  74 E16       29.79R HX  97           
MAJURO AP      PTSUNNY   86  77  74 E12       29.77R HX  97           
MAJURO WSO     PTSUNNY   84  77  79 E12       29.76R HX  94           

$$